This is the latest recevied weather packets stored in our database for station/object K3MV-13. If no packets are shown the sender has not sent any weather packets the latest 10 day(s).
| Time | Temp. | Humidity | Pressure | Rain* | Wind** | Luminosity | Snow |
|---|---|---|---|---|---|---|---|
| 1777660735 | 13.33° C | 38% | 1010.4 hPa | 0 mm | - | 367 W/m² | - |
| 1777660129 | 13.33° C | 36% | 1010.5 hPa | 0 mm | - | 124 W/m² | - |
| 1777659826 | 13.89° C | 38% | 1010.6 hPa | 0 mm | - | 165 W/m² | - |
| 1777659523 | 13.89° C | 38% | 1010.7 hPa | 0 mm | - | 312 W/m² | - |
| 1777658917 | 13.89° C | 43% | 1011 hPa | 0 mm | - | 294 W/m² | - |
| 1777658007 | 12.78° C | 42% | 1010.9 hPa | 0 mm | - | 334 W/m² | - |
| 1777657100 | 12.78° C | 46% | 1011 hPa | 0 mm | - | 174 W/m² | - |
| 1777656797 | 13.33° C | 43% | 1011 hPa | 0 mm | - | 231 W/m² | - |
| 1777656187 | 12.78° C | 44% | 1011.4 hPa | 0 mm | - | 258 W/m² | - |
| 1777655883 | 12.78° C | 43% | 1011.5 hPa | 0 mm | - | 229 W/m² | - |
| 1777654369 | 13.89° C | 48% | 1011.5 hPa | 0 mm | - | 418 W/m² | - |
| 1777653459 | 13.89° C | 44% | 1011.6 hPa | 0 mm | - | 360 W/m² | - |
| 1777653157 | 13.89° C | 40% | 1012 hPa | 0 mm | - | 586 W/m² | - |
| 1777652852 | 13.89° C | 45% | 1011.9 hPa | 0 mm | - | 564 W/m² | - |
| 1777652549 | 13.33° C | 46% | 1011.9 hPa | 0 mm | - | 577 W/m² | - |
| 1777652246 | 12.78° C | 46% | 1012.1 hPa | 0 mm | - | 512 W/m² | - |
| 1777651944 | 12.78° C | 49% | 1012.1 hPa | 0 mm | - | 363 W/m² | - |
| 1777651640 | 12.78° C | 46% | 1012.2 hPa | 0 mm | - | 359 W/m² | - |
| 1777651337 | 12.78° C | 48% | 1012.2 hPa | 0 mm | - | 396 W/m² | - |
| 1777651034 | 12.78° C | 47% | 1012.4 hPa | 0 mm | - | 384 W/m² | - |
| 1777650731 | 13.33° C | 47% | 1012.3 hPa | 0 mm | - | 439 W/m² | - |
| 1777650428 | 13.33° C | 49% | 1012.3 hPa | 0 mm | - | 422 W/m² | - |
| 1777650125 | 13.33° C | 49% | 1012.4 hPa | 0 mm | - | 542 W/m² | - |
| 1777649822 | 13.33° C | 51% | 1012.5 hPa | 0 mm | - | 647 W/m² | - |
| 1777649520 | 13.33° C | 53% | 1012.4 hPa | 0 mm | - | 494 W/m² | - |
* Rain latest hour (hover to see other rain measurements)
** Current wind speed in m/s (hover to see current wind gust speed)